This is the latest recevied weather packets stored in our database for station/object SP7QPD-1. If no packets are shown the sender has not sent any weather packets the latest 10 day(s).
| Time | Temp. | Humidity | Pressure | Rain* | Wind** | Luminosity | Snow |
|---|---|---|---|---|---|---|---|
| 1777714357 | 20° C | 43% | 1023.4 hPa | 0 mm | - | - | - |
| 1777713757 | 20° C | 45% | 1023.5 hPa | 0 mm | - | - | - |
| 1777713157 | 20° C | 47% | 1023.6 hPa | 0 mm | - | - | - |
| 1777712557 | 19.44° C | 47% | 1023.7 hPa | 0 mm | - | - | - |
| 1777711957 | 19.44° C | 48% | 1023.9 hPa | 0 mm | - | - | - |
| 1777711357 | 19.44° C | 50% | 1024.1 hPa | 0 mm | - | - | - |
| 1777710757 | 18.89° C | 51% | 1024.1 hPa | 0 mm | - | - | - |
| 1777710157 | 18.89° C | 53% | 1024.1 hPa | 0 mm | - | - | - |
| 1777709557 | 17.78° C | 55% | 1024.2 hPa | 0 mm | - | - | - |
| 1777708957 | 17.22° C | 57% | 1024.1 hPa | 0 mm | - | - | - |
| 1777708357 | 16.67° C | 60% | 1024.2 hPa | 0 mm | - | - | - |
| 1777707756 | 15.56° C | 63% | 1024.2 hPa | 0 mm | - | - | - |
| 1777707156 | 14.44° C | 65% | 1024.2 hPa | 0 mm | - | - | - |
| 1777706556 | 13.89° C | 66% | 1024.2 hPa | 0 mm | - | - | - |
| 1777705956 | 13.33° C | 67% | 1024.2 hPa | 0 mm | - | - | - |
| 1777705356 | 12.22° C | 69% | 1024.2 hPa | 0 mm | - | - | - |
| 1777704756 | 11.67° C | 69% | 1024.2 hPa | 0 mm | - | - | - |
| 1777704156 | 11.11° C | 70% | 1024.3 hPa | 0 mm | - | - | - |
| 1777703556 | 10.56° C | 70% | 1024.3 hPa | 0 mm | - | - | - |
| 1777702956 | 10° C | 72% | 1024.3 hPa | 0 mm | - | - | - |
| 1777702356 | 10° C | 72% | 1024.5 hPa | 0 mm | - | - | - |
| 1777701756 | 9.44° C | 73% | 1024.5 hPa | 0 mm | - | - | - |
| 1777701156 | 8.89° C | 73% | 1024.3 hPa | 0 mm | - | - | - |
| 1777700555 | 8.89° C | 72% | 1024.2 hPa | 0 mm | - | - | - |
| 1777699955 | 7.78° C | 71% | 1024.3 hPa | 0 mm | - | - | - |
* Rain latest hour (hover to see other rain measurements)
** Current wind speed in m/s (hover to see current wind gust speed)